Time,TemperatureF,DewpointF,PressureIn,WindDirection,WindDirectionDegrees,WindSpeedMPH,WindSpeedGustMPH,Humidity,HourlyPrecipIn,Conditions,Clouds,dailyrainin,SoftwareType,DateUTC
2013-04-06 00:11:00,42.4,42.1,29.88,NE,45,0.0,-999.0,99,-99.99,,,0.00,Acu-Link.com,2013-04-06 04:11:00,
2013-04-06 00:26:00,42.3,42.0,29.89,NE,45,0.0,-999.0,99,-99.99,,,0.00,Acu-Link.com,2013-04-06 04:26:00,
2013-04-06 00:56:00,41.0,40.7,29.89,NE,45,0.0,-999.0,99,-99.99,,,0.00,Acu-Link.com,2013-04-06 04:56:00,
2013-04-06 01:12:00,40.5,40.2,29.90,SSE,157,0.0,-999.0,99,-99.99,,,0.00,Acu-Link.com,2013-04-06 05:12:00,
2013-04-06 01:27:00,40.1,39.8,29.90,SSE,157,0.0,-999.0,99,-99.99,,,0.00,Acu-Link.com,2013-04-06 05:27:00,
2013-04-06 01:42:00,39.7,39.4,29.90,SSE,157,0.0,-999.0,99,-99.99,,,0.00,Acu-Link.com,2013-04-06 05:42:00,
2013-04-06 01:58:00,39.4,39.1,29.90,SSE,157,0.0,-999.0,99,-99.99,,,0.00,Acu-Link.com,2013-04-06 05:58:00,
2013-04-06 02:13:00,39.2,38.9,29.90,SSE,157,0.0,-999.0,99,-99.99,,,0.00,Acu-Link.com,2013-04-06 06:13:00,
2013-04-06 02:59:00,38.5,38.2,29.91,SSE,157,0.0,-999.0,99,-99.99,,,0.00,Acu-Link.com,2013-04-06 06:59:00,
2013-04-06 03:14:00,38.7,38.4,29.92,SSE,157,0.0,-999.0,99,-99.99,,,0.00,Acu-Link.com,2013-04-06 07:14:00,
2013-04-06 03:29:00,38.7,38.4,29.93,SW,225,0.0,-999.0,99,-99.99,,,0.00,Acu-Link.com,2013-04-06 07:29:00,
2013-04-06 04:00:00,43.2,39.0,29.95,ESE,112,2.7,-999.0,85,-99.99,,,0.00,Acu-Link.com,2013-04-06 08:00:00,
2013-04-06 04:15:00,43.7,39.2,29.95,West,270,3.7,-999.0,84,-99.99,,,0.00,Acu-Link.com,2013-04-06 08:15:00,
2013-04-06 04:30:00,44.2,38.1,29.96,WSW,247,4.2,-999.0,79,-99.99,,,0.00,Acu-Link.com,2013-04-06 08:30:00,
2013-04-06 04:46:00,44.6,37.5,29.97,SE,135,2.7,-999.0,76,-99.99,,,0.00,Acu-Link.com,2013-04-06 08:46:00,
2013-04-06 05:16:00,44.4,36.3,29.98,West,270,1.7,-999.0,73,-99.99,,,0.00,Acu-Link.com,2013-04-06 09:16:00,
2013-04-06 06:02:00,44.4,33.4,30.00,NNW,337,0.0,-999.0,65,-99.99,,,0.00,Acu-Link.com,2013-04-06 10:02:00,
2013-04-06 06:17:00,45.0,32.8,30.00,East,90,0.0,-999.0,62,-99.99,,,0.00,Acu-Link.com,2013-04-06 10:17:00,
2013-04-06 06:47:00,44.2,32.8,30.03,SE,135,0.0,-999.0,64,-99.99,,,0.00,Acu-Link.com,2013-04-06 10:47:00,
2013-04-06 07:02:00,43.3,32.7,30.05,ESE,112,0.0,-999.0,66,-99.99,,,0.00,Acu-Link.com,2013-04-06 11:02:00,
2013-04-06 07:18:00,43.0,33.2,30.05,SE,135,0.0,-999.0,68,-99.99,,,0.00,Acu-Link.com,2013-04-06 11:18:00,
2013-04-06 07:33:00,42.8,33.0,30.06,NNE,22,0.0,-999.0,68,-99.99,,,0.00,Acu-Link.com,2013-04-06 11:33:00,
2013-04-06 07:48:00,44.1,32.7,30.07,ESE,112,0.0,-999.0,64,-99.99,,,0.00,Acu-Link.com,2013-04-06 11:48:00,
2013-04-06 08:19:00,46.9,32.0,30.08,NNW,337,5.8,-999.0,56,-99.99,,,0.00,Acu-Link.com,2013-04-06 12:19:00,
2013-04-06 08:49:00,49.3,29.9,30.10,NNW,337,4.7,-999.0,47,-99.99,,,0.00,Acu-Link.com,2013-04-06 12:49:00,
2013-04-06 09:04:00,50.5,27.7,30.10,NNE,22,5.8,-999.0,41,-99.99,,,0.00,Acu-Link.com,2013-04-06 13:04:00,
2013-04-06 09:20:00,50.9,26.2,30.11,NE,45,5.8,-999.0,38,-99.99,,,0.00,Acu-Link.com,2013-04-06 13:20:00,
2013-04-06 09:35:00,52.0,25.2,30.10,ENE,67,4.2,-999.0,35,-99.99,,,0.00,Acu-Link.com,2013-04-06 13:35:00,
2013-04-06 09:50:00,53.2,24.9,30.11,West,270,3.2,-999.0,33,-99.99,,,0.00,Acu-Link.com,2013-04-06 13:50:00,
2013-04-06 10:05:00,56.1,25.1,30.12,SSE,157,5.8,-999.0,30,-99.99,,,0.00,Acu-Link.com,2013-04-06 14:05:00,
2013-04-06 10:21:00,57.0,25.1,30.13,ESE,112,2.7,-999.0,29,-99.99,,,0.00,Acu-Link.com,2013-04-06 14:21:00,
2013-04-06 10:36:00,59.0,27.6,30.13,WNW,292,1.7,-999.0,30,-99.99,,,0.00,Acu-Link.com,2013-04-06 14:36:00,
2013-04-06 10:51:00,60.4,26.3,30.13,SSE,157,2.7,-999.0,27,-99.99,,,0.00,Acu-Link.com,2013-04-06 14:51:00,
2013-04-06 11:21:00,60.8,25.7,30.13,South,180,4.2,-999.0,26,-99.99,,,0.00,Acu-Link.com,2013-04-06 15:21:00,
2013-04-06 11:37:00,60.8,26.6,30.13,WSW,247,2.7,-999.0,27,-99.99,,,0.00,Acu-Link.com,2013-04-06 15:37:00,
2013-04-06 11:52:00,62.8,28.3,30.13,West,270,4.2,-999.0,27,-99.99,,,0.00,Acu-Link.com,2013-04-06 15:52:00,
2013-04-06 12:07:00,63.1,27.7,30.12,SSE,157,3.2,-999.0,26,-99.99,,,0.00,Acu-Link.com,2013-04-06 16:07:00,
2013-04-06 12:22:00,64.2,29.5,30.12,SSE,157,4.2,-999.0,27,-99.99,,,0.00,Acu-Link.com,2013-04-06 16:22:00,
2013-04-06 12:38:00,64.4,29.7,30.13,West,270,4.2,-999.0,27,-99.99,,,0.00,Acu-Link.com,2013-04-06 16:38:00,
2013-04-06 12:53:00,64.0,28.4,30.12,ESE,112,2.7,-999.0,26,-99.99,,,0.00,Acu-Link.com,2013-04-06 16:53:00,
2013-04-06 13:08:00,65.7,27.9,30.11,ESE,112,0.0,-999.0,24,-99.99,,,0.00,Acu-Link.com,2013-04-06 17:08:00,
2013-04-06 13:23:00,62.4,29.7,30.12,West,270,3.7,-999.0,29,-99.99,,,0.00,Acu-Link.com,2013-04-06 17:23:00,
2013-04-06 14:24:00,61.7,30.0,30.09,ESE,112,0.0,-999.0,30,-99.99,,,0.00,Acu-Link.com,2013-04-06 18:24:00,
2013-04-06 14:40:00,62.2,30.4,30.09,NNW,337,4.2,-999.0,30,-99.99,,,0.00,Acu-Link.com,2013-04-06 18:40:00,
2013-04-06 14:55:00,62.2,29.6,30.08,South,180,1.7,-999.0,29,-99.99,,,0.00,Acu-Link.com,2013-04-06 18:55:00,
2013-04-06 15:10:00,63.3,31.3,30.07,NNE,22,0.0,-999.0,30,-99.99,,,0.00,Acu-Link.com,2013-04-06 19:10:00,
2013-04-06 15:25:00,63.9,30.2,30.08,NNE,22,5.8,-999.0,28,-99.99,,,0.00,Acu-Link.com,2013-04-06 19:25:00,
2013-04-06 16:27:00,66.2,31.2,30.05,NNE,22,4.7,-999.0,27,-99.99,,,0.00,Acu-Link.com,2013-04-06 20:27:00,
2013-04-06 16:42:00,66.4,31.4,30.06,WSW,247,4.2,-999.0,27,-99.99,,,0.00,Acu-Link.com,2013-04-06 20:42:00,
2013-04-06 16:57:00,66.0,32.0,30.05,South,180,1.7,-999.0,28,-99.99,,,0.00,Acu-Link.com,2013-04-06 20:57:00,
2013-04-06 17:27:00,66.2,30.3,30.05,North,0,2.2,-999.0,26,-99.99,,,0.00,Acu-Link.com,2013-04-06 21:27:00,
2013-04-06 17:43:00,65.8,30.0,30.05,NE,45,5.3,-999.0,26,-99.99,,,0.00,Acu-Link.com,2013-04-06 21:43:00,
2013-04-06 18:13:00,65.1,32.1,30.06,WNW,292,2.2,-999.0,29,-99.99,,,0.00,Acu-Link.com,2013-04-06 22:13:00,
2013-04-06 18:44:00,64.6,30.8,30.06,NNE,22,1.7,-999.0,28,-99.99,,,0.00,Acu-Link.com,2013-04-06 22:44:00,
2013-04-06 18:59:00,62.8,30.9,30.07,NNE,22,2.2,-999.0,30,-99.99,,,0.00,Acu-Link.com,2013-04-06 22:59:00,
2013-04-06 19:14:00,61.5,32.1,30.07,NNW,337,1.1,-999.0,33,-99.99,,,0.00,Acu-Link.com,2013-04-06 23:14:00,
2013-04-06 19:30:00,60.3,31.8,30.07,NNW,337,2.7,-999.0,34,-99.99,,,0.00,Acu-Link.com,2013-04-06 23:30:00,
2013-04-06 19:45:00,58.8,32.6,30.07,NNE,22,0.0,-999.0,37,-99.99,,,0.00,Acu-Link.com,2013-04-06 23:45:00,
2013-04-06 20:15:00,56.3,32.9,30.08,NW,315,0.0,-999.0,41,-99.99,,,0.00,Acu-Link.com,2013-04-07 00:15:00,
2013-04-06 20:30:00,55.0,33.5,30.09,NW,315,0.0,-999.0,44,-99.99,,,0.00,Acu-Link.com,2013-04-07 00:30:00,
2013-04-06 21:16:00,54.1,33.8,30.10,NE,45,0.0,-999.0,46,-99.99,,,0.00,Acu-Link.com,2013-04-07 01:16:00,
2013-04-06 21:32:00,53.1,34.5,30.11,NNE,22,0.0,-999.0,49,-99.99,,,0.00,Acu-Link.com,2013-04-07 01:32:00,
2013-04-06 21:47:00,51.4,33.9,30.10,NE,45,0.0,-999.0,51,-99.99,,,0.00,Acu-Link.com,2013-04-07 01:47:00,
2013-04-06 22:02:00,51.8,34.3,30.11,North,0,2.7,-999.0,51,-99.99,,,0.00,Acu-Link.com,2013-04-07 02:02:00,
2013-04-06 22:17:00,53.6,36.9,30.11,NNE,22,6.3,-999.0,53,-99.99,,,0.00,Acu-Link.com,2013-04-07 02:17:00,
2013-04-06 22:33:00,53.4,37.6,30.12,NNE,22,13.0,-999.0,55,-99.99,,,0.00,Acu-Link.com,2013-04-07 02:33:00,
2013-04-06 22:48:00,52.9,38.5,30.12,NNE,22,5.8,-999.0,58,-99.99,,,0.00,Acu-Link.com,2013-04-07 02:48:00,
2013-04-06 23:03:00,52.3,38.4,30.13,NW,315,7.8,-999.0,59,-99.99,,,0.00,Acu-Link.com,2013-04-07 03:03:00,
2013-04-06 23:18:00,51.8,37.9,30.14,North,0,9.9,-999.0,59,-99.99,,,0.00,Acu-Link.com,2013-04-07 03:18:00,
2013-04-06 23:33:00,51.1,37.7,30.13,North,0,5.3,-999.0,60,-99.99,,,0.00,Acu-Link.com,2013-04-07 03:33:00,
2013-04-06 23:49:00,50.7,37.3,30.13,NNE,22,9.9,-999.0,60,-99.99,,,0.00,Acu-Link.com,2013-04-07 03:49:00,